Manteo, NC

8:10 AM EST on December 11, 2016 (GMT -0500)
Dare County Regional

Weather History for KMQI - September, 2012

Change the Weather History Date:

Wednesday, September 5, 2012

  Actual Average Record
Temperature  
Mean Temperature 83 °F -  
Max Temperature 89 °F 79 °F 93 °F (1980)
Min Temperature 77 °F 70 °F 60 °F (2010)
Cooling Degree Days 18    
Growing Degree Days 33 (Base 50)    
Moisture  
Dew Point 71 °F    
Average Humidity 67    
Maximum Humidity 83    
Minimum Humidity 49    
Precipitation  
Precipitation 0.00 in - - ()
Sea Level Pressure  
Sea Level Pressure 29.94 in    
Wind  
Wind Speed 12 mph (SW)    
Max Wind Speed 18 mph    
Max Gust Speed 20 mph    
Visibility 10 miles    
Events      
Averages and records for this station are not official NWS values.
T = Trace of Precipitation, MM = Missing Value Source: NWS Daily Summary

Daily Weather History Graph

Daily Weather History Graph

Search for Another Location

Airport or City:

Trip Planner

Search our weather history database for the weather conditions in past years. The results will help you decide how hot, cold, wet, or windy it might be!

Date:

Astronomy

Sep. 05, 2012 Rise Set
Actual Time 6:38 AM EDT 7:23 PM EDT
Civil Twilight 6:12 AM EDT 7:49 PM EDT
Nautical Twilight 5:41 AM EDT 8:20 PM EDT
Astronomical Twilight 5:09 AM EDT 8:51 PM EDT
Moon 10:04 PM EDT (9/5) 11:27 AM EDT (9/5)
Length of Visible Light 13h 37m
Length of Day
12h 45m
Waning Gibbous, 76% of the Moon is Illuminated
Sep 5
Waning Gibbous
Sep 8
Last Quarter
Sep 15
New
Sep 22
First Quarter
Sep 29
Full

Hourly Weather History & Observations

Time (EDT) Temp. Heat Index Dew Point Humidity Pressure Visibility Wind Dir Wind Speed Gust Speed Precip Events Conditions
12:15 AM 78.8 °F - 69.8 °F 74% 29.98 in 10.0 mi SW 11.5 mph - N/A   Unknown
12:35 AM 78.8 °F - 69.8 °F 74% 29.98 in 10.0 mi SW 10.4 mph - N/A   Unknown
12:55 AM 78.8 °F - 69.8 °F 74% 29.98 in 10.0 mi SW 10.4 mph - N/A   Unknown
1:15 AM 78.8 °F - 71.6 °F 78% 29.98 in 10.0 mi SW 10.4 mph - N/A   Unknown
1:35 AM 78.8 °F - 71.6 °F 78% 29.98 in 10.0 mi SW 9.2 mph - N/A   Unknown
1:55 AM 78.8 °F - 71.6 °F 78% 29.97 in 10.0 mi SW 11.5 mph - N/A   Unknown
2:15 AM 78.8 °F - 69.8 °F 74% 29.96 in 10.0 mi SW 10.4 mph - N/A   Unknown
2:35 AM 78.8 °F - 71.6 °F 78% 29.96 in 10.0 mi SW 10.4 mph - N/A   Unknown
2:55 AM 78.8 °F - 71.6 °F 78% 29.96 in 10.0 mi SW 10.4 mph - N/A   Unknown
3:15 AM 78.8 °F - 71.6 °F 78% 29.96 in 10.0 mi SW 12.7 mph - N/A   Unknown
3:35 AM 78.8 °F - 69.8 °F 74% 29.95 in 10.0 mi SW 12.7 mph - N/A   Unknown
3:55 AM 77.0 °F - 69.8 °F 78% 29.95 in 10.0 mi SW 10.4 mph - N/A   Unknown
4:15 AM 77.0 °F - 71.6 °F 83% 29.95 in 10.0 mi SW 10.4 mph - N/A   Unknown
4:35 AM 77.0 °F - 71.6 °F 83% 29.95 in 10.0 mi SW 10.4 mph - N/A   Unknown
4:55 AM 77.0 °F - 71.6 °F 83% 29.95 in 10.0 mi WSW 9.2 mph - N/A   Unknown
5:15 AM 77.0 °F - 71.6 °F 83% 29.96 in 10.0 mi WSW 9.2 mph - N/A   Unknown
5:35 AM 77.0 °F - 71.6 °F 83% 29.96 in 10.0 mi SW 9.2 mph - N/A   Unknown
5:55 AM 77.0 °F - 71.6 °F 83% 29.96 in 10.0 mi WSW 9.2 mph - N/A   Unknown
6:15 AM 77.0 °F - 69.8 °F 78% 29.96 in 10.0 mi WSW 10.4 mph - N/A   Unknown
6:35 AM 77.0 °F - 71.6 °F 83% 29.96 in 10.0 mi WSW 9.2 mph - N/A   Unknown
6:55 AM 77.0 °F - 71.6 °F 83% 29.96 in 10.0 mi WSW 10.4 mph - N/A   Unknown
7:15 AM 78.8 °F - 71.6 °F 78% 29.97 in 10.0 mi WSW 10.4 mph - N/A   Unknown
7:35 AM 78.8 °F - 71.6 °F 78% 29.97 in 10.0 mi WSW 11.5 mph - N/A   Unknown
7:55 AM 78.8 °F - 71.6 °F 78% 29.97 in 10.0 mi WSW 8.1 mph - N/A   Unknown
8:15 AM 80.6 °F 84.6 °F 71.6 °F 74% 29.97 in 10.0 mi WSW 10.4 mph - N/A   Unknown
8:35 AM 80.6 °F 84.6 °F 71.6 °F 74% 29.97 in 10.0 mi WSW 10.4 mph - N/A   Unknown
8:55 AM 80.6 °F 84.6 °F 71.6 °F 74% 29.97 in 10.0 mi WSW 11.5 mph - N/A   Unknown
9:15 AM 82.4 °F 86.3 °F 69.8 °F 66% 29.97 in 10.0 mi WSW 11.5 mph - N/A   Unknown
9:35 AM 82.4 °F 86.3 °F 69.8 °F 66% 29.97 in 10.0 mi WSW 10.4 mph - N/A   Unknown
9:55 AM 84.2 °F 88.4 °F 69.8 °F 62% 29.97 in 10.0 mi WSW 11.5 mph - N/A   Unknown
10:15 AM 84.2 °F 87.3 °F 68.0 °F 58% 29.97 in 10.0 mi WSW 10.4 mph - N/A   Unknown
10:35 AM 86.0 °F 90.4 °F 69.8 °F 58% 29.96 in 10.0 mi SW 12.7 mph - N/A   Clear
10:55 AM 86.0 °F 89.4 °F 68.0 °F 55% 29.96 in 10.0 mi WSW 11.5 mph - N/A   Clear
11:15 AM 87.8 °F 91.4 °F 68.0 °F 52% 29.96 in 10.0 mi SW 13.8 mph - N/A   Clear
11:35 AM 87.8 °F 91.4 °F 68.0 °F 52% 29.95 in 10.0 mi SW 11.5 mph - N/A   Clear
11:55 AM 87.8 °F 91.4 °F 68.0 °F 52% 29.95 in 10.0 mi WSW 11.5 mph - N/A   Clear
12:15 PM 87.8 °F 91.4 °F 68.0 °F 52% 29.94 in 10.0 mi WSW 13.8 mph 19.6 mph N/A   Unknown
12:35 PM 87.8 °F 91.4 °F 68.0 °F 52% 29.94 in 10.0 mi SW 13.8 mph 17.3 mph N/A   Unknown
12:55 PM 89.6 °F 93.4 °F 68.0 °F 49% 29.93 in 10.0 mi SW 13.8 mph - N/A   Unknown
1:15 PM 89.6 °F 93.4 °F 68.0 °F 49% 29.93 in 10.0 mi WSW 12.7 mph 17.3 mph N/A   Unknown
1:55 PM 89.6 °F 93.4 °F 68.0 °F 49% 29.92 in 10.0 mi SW 11.5 mph - N/A   Unknown
2:15 PM 89.6 °F 93.4 °F 68.0 °F 49% 29.92 in 10.0 mi WSW 12.7 mph - N/A   Unknown
2:35 PM 89.6 °F 94.7 °F 69.8 °F 52% 29.91 in 10.0 mi WSW 11.5 mph 16.1 mph N/A   Unknown
2:55 PM 89.6 °F 93.4 °F 68.0 °F 49% 29.89 in 10.0 mi SW 11.5 mph 16.1 mph N/A   Unknown
3:15 PM 89.6 °F 93.4 °F 68.0 °F 49% 29.89 in 10.0 mi WSW 11.5 mph 17.3 mph N/A   Unknown
3:35 PM 89.6 °F 93.4 °F 68.0 °F 49% 29.88 in 10.0 mi SW 13.8 mph - N/A   Unknown
3:55 PM 89.6 °F 93.4 °F 68.0 °F 49% 29.88 in 10.0 mi SW 12.7 mph - N/A   Unknown
4:15 PM 89.6 °F 93.4 °F 68.0 °F 49% 29.88 in 10.0 mi WSW 12.7 mph - N/A   Unknown
4:35 PM 89.6 °F 93.4 °F 68.0 °F 49% 29.88 in 10.0 mi SW 11.5 mph - N/A   Unknown
4:55 PM 89.6 °F 94.7 °F 69.8 °F 52% 29.88 in 10.0 mi WSW 8.1 mph - N/A   Unknown
5:15 PM 89.6 °F 94.7 °F 69.8 °F 52% 29.88 in 10.0 mi SW 10.4 mph - N/A   Unknown
5:35 PM 87.8 °F 93.8 °F 71.6 °F 58% 29.88 in 10.0 mi SSW 15.0 mph - N/A   Unknown
5:55 PM 87.8 °F 93.8 °F 71.6 °F 58% 29.89 in 10.0 mi SSW 13.8 mph - N/A   Unknown
6:15 PM 86.0 °F 91.8 °F 71.6 °F 62% 29.89 in 10.0 mi South 16.1 mph - N/A   Unknown
6:35 PM 86.0 °F 93.4 °F 73.4 °F 66% 29.89 in 10.0 mi SSW 18.4 mph - N/A   Unknown
6:55 PM 84.2 °F 90.9 °F 73.4 °F 70% 29.89 in 10.0 mi SSW 18.4 mph - N/A   Unknown
7:15 PM 82.4 °F 88.2 °F 73.4 °F 74% 29.89 in 10.0 mi SSW 16.1 mph - N/A   Clear
7:35 PM 82.4 °F 88.2 °F 73.4 °F 74% 29.90 in 10.0 mi SSW 18.4 mph - N/A   Unknown
7:55 PM 82.4 °F 88.2 °F 73.4 °F 74% 29.90 in 10.0 mi SSW 17.3 mph - N/A   Clear
8:15 PM 82.4 °F 88.2 °F 73.4 °F 74% 29.90 in 10.0 mi SSW 18.4 mph - N/A   Clear
8:35 PM 82.4 °F 88.2 °F 73.4 °F 74% 29.90 in 10.0 mi SSW 16.1 mph - N/A   Clear
8:55 PM 82.4 °F 87.2 °F 71.6 °F 70% 29.91 in 10.0 mi SSW 17.3 mph - N/A   Unknown
9:15 PM 82.4 °F 87.2 °F 71.6 °F 70% 29.91 in 10.0 mi SSW 13.8 mph - N/A   Unknown
9:35 PM 80.6 °F 84.6 °F 71.6 °F 74% 29.92 in 10.0 mi SW 12.7 mph - N/A   Unknown
9:55 PM 80.6 °F 84.6 °F 71.6 °F 74% 29.91 in 10.0 mi SW 15.0 mph 19.6 mph N/A   Unknown
10:15 PM 80.6 °F 84.6 °F 71.6 °F 74% 29.92 in 10.0 mi SW 13.8 mph 18.4 mph N/A   Unknown
10:55 PM 80.6 °F 84.6 °F 71.6 °F 74% 29.92 in 10.0 mi SW 13.8 mph 18.4 mph N/A   Unknown
11:15 PM 80.6 °F 84.6 °F 71.6 °F 74% 29.92 in 10.0 mi SW 12.7 mph 18.4 mph N/A   Unknown
11:35 PM 78.8 °F - 71.6 °F 78% 29.93 in 10.0 mi SW 11.5 mph - N/A   Unknown